Tracking 19795 objects as of 20-Jul-2019
HD Live streaming from Space Station
objects crossing your sky now

COSMOS 1275 DEB

Track COSMOS 1275 DEB now!
10-day predictions


NORAD ID: 12952
Int'l Code: 1981-053EG
Perigee: 913.3 km
Apogee: 924.2 km
Inclination: 83.0 °
Period: 103.2 minutes
Semi major axis: 7289 km
RCS: 0.0421 m2 (small)
Launch date: June 4, 1981
Source: Commonwealth of Independent States (former USSR) (CIS)
Launch site: PLESETSK MISSILE AND SPACE COMPLEX (PKMTR)

Note: This is SATELLITE DEBRIS
aabbcc
Your satellite tracking list
Your tracking list is empty




NASA's NSSDC Master Catalog

Two Line Element Set (TLE):
1 12952U 81053EG  19201.21233187  .00000185  00000-0  12630-3 0  9995
2 12952  82.9616 106.3376 0007457 257.3544 221.9106 13.94876288910896
Source of the keplerian elements: AFSPC